User: anonymous   Login
Location: Rayville (historical)
(39.9992°N, 99.6815°W)
Time: 07:28:38
(UTC+00:00)
Language:

SJ-11-01 - Orbit

View from above orbital plane
View from above orbital plane
View from above satellite
View from above satellite

Ground track
Ground track

The orbit data is extracted from the following two-line orbital elements,

1 36088U 09061A   20157.08004668  .00000045  00000-0  18535-4 0  9993
2 36088  97.9918 190.4572 0012824 111.9769 248.2804 14.60153120562801
Epoch (UTC): 05 June 2020 01:55:16
Eccentricity: 0.0012824
inclination: 97.9918°
perigee height: 683 km
apogee height: 702 km
right ascension of ascending node: 190.4572°
argument of perigee: 111.9769°
revolutions per day: 14.60153120
mean anomaly at epoch: 248.2804°
orbit number at epoch: 56280

The dashed part of the orbit path shows where the satellite is in the earth's shadow,  

DLR